Regional Weather Roundup
Issued by NWS

Home | Current Version | Previous Version | Text Only | Print | Product List | Glossary On
Versions: 1 2 3 4 5 6 7 8 9 10 11 12 13 14 15 16 17 18 19 20 21 22 23 24 25 26 27 28 29 30 31 32 33 34 35 36 37 38 39 40 41 42 43 44 45 46 47 48 49 50
000
ASUS43 KDMX 132301
RWRIA

WEATHER ROUNDUP FOR IOWA
NATIONAL WEATHER SERVICE DES MOINES IA
500 PM CST WED DEC 13 2017

NOTE: "FAIR" INDICATES FEW OR NO CLOUDS BELOW 12,000 FEET WITH NO
SIGNIFICANT WEATHER AND/OR OBSTRUCTIONS TO VISIBILITY.

* - THESE STATIONS ARE NOT NWS STATIONS...THUS NOT UNDER NWS
QUALITY CONTROL.  THEY ALSO DO NOT REPORT WEATHER SUCH
AS PRECIPITATION OR FOG.

IAZ001>003-012>014-020>022-031>034-043>046-140000-
   NORTHWEST IOWA

CITY           SKY/WX    TMP DP  RH WIND       PRES   REMARKS
CARROLL *      CLOUDY    37  28  70 NW23G29   29.80R WCI  26
CHEROKEE *     CLOUDY    36  30  79 NW15      29.84R WCI  27
DENISON *      CLOUDY    37  28  70 N15G22    29.85R WCI  28
LE MARS *      CLOUDY    39  28  65 NW12G24   29.86R WCI  32
ORANGE CITY *  CLOUDY    37  34  87 N6        29.84R WCI  33
SHELDON *      CLOUDY    34  28  80 N20G26    29.82R WCI  22
SIOUX CITY     CLOUDY    40  28  62 NW20G36   29.87R WCI  30
SPENCER        CLOUDY    33  25  72 NW24G36   29.82R WCI  20
STORM LAKE *   CLOUDY    36  28  75 NW15G23   29.81R WCI  26
$$

IAZ055>058-069>071-079>083-090>094-140000-
   SOUTHWEST IOWA

CITY           SKY/WX    TMP DP  RH WIND       PRES   REMARKS
ATLANTIC *     CLOUDY    41  27  56 N18G28    29.83R
AUDUBON *      CLOUDY    37  30  75 N15G25    29.83R WCI  28
CLARINDA *     PTCLDY    45  30  57 N15G26      N/A
COUNCIL BLFS * CLOUDY    41  28  60 NW24G31   29.86R
CRESTON *      CLOUDY    41  28  60 NW26G37   29.80R
HARLAN  *      CLOUDY    39  28  65 NW22G29   29.87R WCI  29
LAMONI         CLOUDY    44  29  55 NW18G30   29.77R
RED OAK *      CLOUDY    43  28  56 N18G30    29.86R
SHENANDOAH *   CLEAR     45  30  57 N22G29    29.84R
$$

IAZ047>049-059>061-072>074-084-140000-
   CENTRAL IOWA

CITY           SKY/WX    TMP DP  RH WIND       PRES   REMARKS
AMES           CLOUDY    36  23  59 N35G45    29.76R WCI  22
ANKENY *       CLOUDY    37  25  60 NW28G44   29.78R WCI  25
BOONE *        CLOUDY    36  23  60 NW24G43   29.76R WCI  24
CHARITON *     CLOUDY    37  30  75 NW22      29.76R WCI  27
DES MOINES     CLOUDY    37  27  67 NW25G38   29.77R WCI  25
GRINNELL*      CLOUDY    35  27  73 NW29G36   29.71R WCI  21
KNOXVILLE *    CLOUDY    37  25  60 NW30G43   29.74R WCI  25
MARSHALLTOWN   CLOUDY    33  25  72 NW24G35   29.71R WCI  20
NEWTON *       CLOUDY    36  23  60 NW31G45   29.74R WCI  22
PELLA *        CLOUDY    36  26  66 NW26G35   29.74R WCI  24
PERRY *        CLOUDY    37  26  64 NW24G38   29.80R WCI  25
$$

IAZ004>006-015-016-023>025-035-036-140000-
   NORTH CENTRAL IOWA

CITY           SKY/WX    TMP DP  RH WIND       PRES   REMARKS
ALGONA *       CLOUDY    34  23  64 NW23G36   29.77R WCI  22
CLARION *      CLOUDY    32  25  74 NW30G38   29.75R WCI  18
ESTHERVILLE    CLOUDY    31  21  66 NW41G54   29.78R WCI  14
FORT DODGE *   CLOUDY    34  22  61 NW20G36   29.78R WCI  23
MASON CITY     CLOUDY    29  21  72 NW24G33   29.73R WCI  15
FOREST CITY *  CLOUDY    30  25  80 NW25G35   29.74R WCI  16
WEBSTER CITY * CLOUDY    34  23  64 NW31G40   29.74R WCI  20
IOWA FALLS *   CLOUDY    33  26  76 NW31G38   29.73R WCI  19
$$

IAZ007>011-017>019-026>030-037>042-050>054-066-140000-
   NORTHEAST IOWA

CITY           SKY/WX    TMP DP  RH WIND       PRES   REMARKS
CEDAR RAPIDS   CLOUDY    33  26  75 NW24G37   29.64R WCI  20
CHARLES CITY * CLOUDY    28  27  93 N25G35    29.68R WCI  14
CLINTON *      CLOUDY    33  25  72 NW25G33   29.56R WCI  20
DECORAH *      CLOUDY    23  18  80 N22G28    29.64R WCI   8
DUBUQUE        CLOUDY    28  22  78 NW20G39   29.56R WCI  15
MONTICELLO *   CLOUDY    32  23  69 NW26G37   29.59R WCI  18
OELWEIN *      CLOUDY    28  23  80 N28G38    29.65R WCI  13
WATERLOO       CLOUDY    31  22  69 NW23G40   29.68R WCI  18
$$

IAZ064-065-067-068-078-140000-
   EAST CENTRAL IOWA

CITY           SKY/WX    TMP DP  RH WIND       PRES   REMARKS
DAVENPORT      CLOUDY    35  24  64 NW28G39   29.60R WCI  22
IOWA CITY      CLOUDY    35  25  66 NW28G40   29.67R WCI  22
MT. PLEASANT * CLOUDY    35  27  70 NW22G29   29.68R WCI  24
MUSCATINE *    CLOUDY    36  27  69 NW29G44   29.64R WCI  23
QUAD CITIES    CLOUDY    37  26  64 NW25G44   29.57R WCI  25
$$

IAZ062-063-075>077-085>089-095>099-140000-
   SOUTHEAST IOWA

CITY           SKY/WX    TMP DP  RH WIND       PRES   REMARKS
BURLINGTON     CLOUDY    36  28  73 NW25G37   29.65R WCI  24
FAIRFIELD *    CLOUDY    36  27  69 NW31G40   29.68R WCI  22
FORT MADISON * CLOUDY    37  28  70 NW28G38   29.68R WCI  25
KEOKUK *       CLOUDY    39  28  65 NW22G36   29.68R WCI  29
OSKALOOSA *    CLOUDY    35  26  70 NW28G38   29.72R WCI  22
OTTUMWA        CLOUDY    37  26  64 NW29G39   29.71R WCI  25
WASHINGTON *   CLOUDY    34  28  80 NW26G36   29.69R WCI  21
$$

ABBREVIATIONS USED IN REMARKS
   TC - TEMPERATURES IN CELSIUS
  WCI - WIND CHILL INDEX
   HX - HEAT INDEX
  VSB - VISIBILITY
$$




USA.gov is the U.S. government's official web portal to all federal, state and local government web resources and services.